Погода в Кузьмищах

Россия / Костромская область     57°52′31″N   41°07′52″E
темп.,
°C
ветер,
м/с
пор.,
м/с
влажн.,
%
обл.,
%
осадки,
мм/ч
давл.,
гПа
погр.,
м
13 мая, чт
чт1300:00+13вюв279699 0.2 1023143
03:00+14вюв288964 0.3 1022196
06:00+14вюв288525 0.0 1022267
09:00+18юв48695 0.0 1022683
12:00+23юв585115 0.2 10201966
15:00+24юв494845 0.2 10172270
18:00+19юв51267100 0.6 10161028
21:00+14юв41094100 1.9 1016528
14 мая, пт
пт1400:00+13ююв279942 1.1 1016223
03:00+11ю289883 1.1 1017188
06:00+12ююз2692100 0.0 1018208
09:00+16ю357125 0.0 1018517
12:00+20ю4857100 0.0 10181512
15:00+20ю476350 1.0 10171368
18:00+19ю3776100 0.6 1016369
21:00+15ююв248998 1.9 101671
15 мая, сб
сб1500:00+14ююв31096100 1.9 1015296
03:00+14вюв3897100 4.6 1013185
06:00+15ююв3119599 0.1 1013349
09:00+18ю248280 0.1 1012338
12:00+24юв465797 0.0 10101154
15:00+18вюв239274 3.8 1010135
18:00+18ю4118596 1.6 1009526
21:00+15ю5149462 1.8 1010635
16 мая, вс
вс1600:00+15ююз411965 0.0 1010391
03:00+13ю289885 0.0 1010224
06:00+14ююз39933 0.0 1010323
09:00+18ююз48681 0.0 1010957
12:00+21юз58566 0.1 10111739
15:00+18юз5879100 3.0 10111030
18:00+17юз59834 3.5 1011926
21:00+13юз299610 3.6 1012255
17 мая, пн
пн1700:00+12зюз389811 0.0 1014247
03:00+11зюз249827 0.0 1015102
06:00+12з249559 0.0 1017184
09:00+17з237345 0.0 1017775
12:00+21сз1258100 0.0 10171227
15:00+22ссв115192 0.0 10171458
18:00+21всв236410 0.0 1017260
21:00+15всв378786 0.0 1017118